カタログに戻る

LEMUR 2 PETERG

運用中科学SSO
NORAD 42841·PAYLOAD·🇺🇸 United States

打ち上げ Jul 14, 2017 から Baikonur Cosmodrome

Loading…

次のパス (今後24時間)

TLE

最新Source: Space-Track

元期: Sep 14, 2026, 07:19 UTC

1 42841U 17042S   26257.30528133  .00017075  00000-0  46710-3 0  9991
2 42841  97.4007  82.7336 0004138  35.4496 324.7023 15.37419376502110

AllMySatでLEMUR 2 PETERGをリアルタイム追跡

Download on the App Store